Weather History for KMKE - August, 2014

Change the Weather History Date:

Wednesday, August 13, 2014

  Actual Average Record
Temperature  
Mean Temperature 67 °F 71 °F  
Max Temperature 76 °F 79 °F 97 °F (1918)
Min Temperature 58 °F 64 °F 48 °F (1961)
Degree Days  
Heating Degree Days 0 0  
Month to date heating degree days 1 0  
Since 1 June heating degree days 96 95  
Since 1 July heating degree days 22 11  
Cooling Degree Days 2 7  
Month to date cooling degree days 50 91  
Year to date cooling degree days 285 463  
Since 1 June cooling degree days 267 433  
Growing Degree Days 16 (Base 50)    
Moisture  
Dew Point 54 °F    
Average Humidity 62    
Maximum Humidity 72    
Minimum Humidity 52    
Precipitation  
Precipitation 0.00 in 0.14 in 0.76 in (1977)
Month to date precipitation 2.10 1.71  
Year to date precipitation 21.70 21.92  
Snow  
Snow 0.00 in 0.00 in 0.00 in ()
Month to date snowfall 0.0 0.0  
Since 1 June snowfall 0.0 0.0  
Since 1 July snowfall 0.0 0.0  
Snow Depth 0.00 in    
Sea Level Pressure  
Sea Level Pressure 30.00 in    
Wind  
Wind Speed 7 mph (North)    
Max Wind Speed 15 mph    
Max Gust Speed 19 mph    
Visibility 10 miles    
Events      
T = Trace of Precipitation, MM = Missing Value Source: NWS Daily Summary

Daily Weather History Graph

Daily Weather History Graph

Search for Another Location

Airport or City:

Trip Planner

Search our weather history database for the weather conditions in past years. The results will help you decide how hot, cold, wet, or windy it might be!

Date:

Astronomy

Aug. 13, 2014 Rise Set
Actual Time 5:55 AM CDT 7:56 PM CDT
Civil Twilight 5:24 AM CDT 8:27 PM CDT
Nautical Twilight 4:46 AM CDT 9:05 PM CDT
Astronomical Twilight 4:05 AM CDT 9:46 PM CDT
Moon 9:34 PM CDT (8/13) 9:29 AM CDT (8/13)
Length of Visible Light 15h 02m
Length of Day
14h 01m
Waning Gibbous, 87% of the Moon is Illuminated
Aug 13
Waning Gibbous
Aug 17
Last Quarter
Aug 25
New
Sep 2
First Quarter
Sep 8
Full

Hourly Weather History & Observations

Time (CDT) Temp. Dew Point Humidity Pressure Visibility Wind Dir Wind Speed Gust Speed Precip Events Conditions
12:52 AM 60.8 °F 51.8 °F 72% 29.96 in 10.0 mi WNW 5.8 mph - N/A   Clear
1:52 AM 60.1 °F 50.0 °F 69% 29.95 in 10.0 mi WNW 5.8 mph - N/A   Clear
2:52 AM 59.0 °F 48.9 °F 69% 29.96 in 10.0 mi WNW 5.8 mph - N/A   Clear
3:52 AM 59.0 °F 48.9 °F 69% 29.97 in 10.0 mi WNW 4.6 mph - N/A   Clear
4:52 AM 60.1 °F 50.0 °F 69% 29.97 in 10.0 mi West 5.8 mph - N/A   Partly Cloudy
5:52 AM 61.0 °F 50.0 °F 67% 29.98 in 10.0 mi West 5.8 mph - N/A   Mostly Cloudy
7:52 AM 64.0 °F 53.1 °F 67% 29.99 in 10.0 mi West 6.9 mph - N/A   Mostly Cloudy
8:52 AM 66.0 °F 55.0 °F 68% 29.99 in 10.0 mi WNW 8.1 mph - N/A   Mostly Cloudy
9:52 AM 71.6 °F 57.2 °F 60% 30.01 in 10.0 mi NW 11.5 mph - N/A   Mostly Cloudy
10:52 AM 73.9 °F 59.0 °F 59% 30.00 in 10.0 mi NNW 10.4 mph - N/A   Partly Cloudy
11:52 AM 73.9 °F 61.0 °F 64% 29.99 in 10.0 mi ENE 9.2 mph - N/A   Scattered Clouds
12:52 PM 71.1 °F 60.1 °F 68% 30.01 in 10.0 mi ENE 9.2 mph - N/A   Mostly Cloudy
1:52 PM 73.9 °F 60.1 °F 62% 30.00 in 10.0 mi ENE 10.4 mph - N/A   Scattered Clouds
2:52 PM 71.6 °F 57.2 °F 60% 30.02 in 10.0 mi NE 10.4 mph - N/A   Scattered Clouds
3:52 PM 71.1 °F 53.1 °F 53% 30.01 in 10.0 mi ENE 9.2 mph - N/A   Partly Cloudy
4:52 PM 70.0 °F 51.1 °F 51% 30.01 in 10.0 mi ENE 11.5 mph - N/A   Partly Cloudy
5:52 PM 69.1 °F 53.1 °F 57% 30.01 in 10.0 mi East 9.2 mph - N/A   Partly Cloudy
6:52 PM 68.0 °F 51.1 °F 55% 30.01 in 10.0 mi ESE 3.5 mph - N/A   Partly Cloudy
7:52 PM 66.9 °F 48.9 °F 52% 30.01 in 10.0 mi Calm Calm - N/A   Partly Cloudy
8:52 PM 64.0 °F 52.0 °F 65% 30.03 in 10.0 mi Calm Calm - N/A   Partly Cloudy
9:52 PM 64.0 °F 54.0 °F 70% 30.03 in 10.0 mi Calm Calm - N/A   Scattered Clouds
11:52 PM 62.1 °F 54.0 °F 75% 30.06 in 10.0 mi NE 6.9 mph - N/A   Partly Cloudy